View from above orbital plane
|
View from above satellite
|
Ground track
|
The orbit data is extracted from the following two-line orbital elements,
1 32750U 08014A 21057.23144279 0.00001500 00000-0 55444-4 0 02
2 32750 98.2082 253.0357 0003103 75.2992 284.7006 15.27744479 01
Epoch (UTC): | 26 February 2021 05:33:16 |
Eccentricity: | 0.0003103 |
inclination: | 98.2082° |
perigee height: | 480 km |
apogee height: | 484 km |
right ascension of ascending node: | 253.0357° |
argument of perigee: | 75.2992° |
revolutions per day: | 15.27744479 |
mean anomaly at epoch: | 284.7006° |
orbit number at epoch: | 0 |
The dashed part of the orbit path shows where the satellite is in the earth's shadow,
|
|